User: anonymous   Login
Location: Unspecified
(0.0000°N, 0.0000°E)
Time: 10:12:42
(UTC+00:00)
Language:

ALSAT 1N - Orbit

View from above orbital plane
View from above orbital plane
View from above satellite
View from above satellite

Ground track
Ground track

The orbit data is extracted from the following two-line orbital elements,

1 41789U 16059G   21017.15986314  .00000109  00000-0  29426-4 0  9995
2 41789  97.9923  75.5960 0028142 352.0443   8.0317 14.64380706230306
Epoch (UTC): 17 January 2021 03:50:12
Eccentricity: 0.0028142
inclination: 97.9923°
perigee height: 659 km
apogee height: 699 km
right ascension of ascending node: 75.5960°
argument of perigee: 352.0443°
revolutions per day: 14.64380706
mean anomaly at epoch: 8.0317°
orbit number at epoch: 23030

The dashed part of the orbit path shows where the satellite is in the earth's shadow,  

DLR